| time (UTC) | temp C | wind direction | speed KPH | gust KPH | rain 1hr cm | rain 24hr cm | rain mn cm | humidity % | barometer mb |
| 20260504081816 | 12 | 5 | 11.3 | 22.5 | 0.00 | 0.00 | 0.00 | 46 | 1005.7 |
| 20260504080832 | 11 | 0 | 6.4 | 22.5 | 0.00 | 0.00 | 0.00 | 50 | 1005.9 |
| 20260504045728 | 14 | 336 | 4.8 | 17.7 | 0.00 | 0.00 | 0.00 | 35 | 1007.1 |
| 20260504044747 | 15 | 332 | 1.6 | 14.5 | 0.00 | 0.00 | 0.00 | 34 | 1007.1 |
| 20260504043751 | 15 | 0 | 0.0 | 1.6 | 0.00 | 0.00 | 0.00 | 33 | 1007.2 |
| 20260504042814 | 15 | 343 | 4.8 | 1.6 | 0.00 | 0.00 | 0.00 | 33 | 1007.3 |
| 20260504041838 | 15 | 0 | 12.9 | 30.6 | 0.00 | 0.00 | 0.00 | 32 | 1007.6 |
| 20260504034521 | 15 | 267 | 4.8 | 25.7 | 0.00 | 0.00 | 0.00 | 29 | 1007.3 |
| 20260504033447 | 15 | 268 | 6.4 | 19.3 | 0.00 | 0.00 | 0.00 | 29 | 1007.0 |
| 20260504032511 | 14 | 234 | 0.0 | 17.7 | 0.00 | 0.00 | 0.00 | 29 | 1006.9 |
| 20260504031455 | 14 | 236 | 0.0 | 0.0 | 0.00 | 0.00 | 0.00 | 28 | 1006.7 |
| 20260504030422 | 15 | 236 | 0.0 | 0.0 | 0.00 | 0.00 | 0.00 | 28 | 1006.5 |
| 20260504025440 | 15 | 236 | 0.0 | 0.0 | 0.00 | 0.00 | 0.00 | 27 | 1006.3 |
| 20260504024648 | 15 | 236 | 0.0 | 0.0 | 0.00 | 0.00 | 0.00 | 27 | 1006.3 |
| 20260504022525 | 15 | 236 | 0.0 | 0.0 | 0.00 | 0.00 | 0.00 | 26 | 1006.1 |
| 20260504021503 | 16 | 236 | 0.0 | 0.0 | 0.00 | 0.00 | 0.00 | 25 | 1006.1 |
| 20260504020512 | 16 | 236 | 0.0 | 0.0 | 0.00 | 0.00 | 0.00 | 25 | 1006.1 |
| 20260504015440 | 16 | 236 | 0.0 | 0.0 | 0.00 | 0.00 | 0.00 | 24 | 1006.1 |
| 20260504013256 | 17 | 236 | 0.0 | 0.0 | 0.00 | 0.00 | 0.00 | 24 | 1006.1 |
| 20260504012242 | 17 | 239 | 0.0 | 0.0 | 0.00 | 0.00 | 0.00 | 23 | 1006.1 |
| 20260504011307 | 18 | 238 | 0.0 | 16.1 | 0.00 | 0.00 | 0.00 | 23 | 1006.1 |
| 20260504005134 | 18 | 241 | 0.0 | 17.7 | 0.00 | 0.00 | 0.00 | 22 | 1006.2 |
| 20260504004138 | 18 | 240 | 0.0 | 12.9 | 0.00 | 0.00 | 0.00 | 21 | 1006.4 |
| 20260504003156 | 19 | 261 | 6.4 | 12.9 | 0.00 | 0.00 | 0.00 | 20 | 1006.5 |
| 20260504002141 | 20 | 217 | 6.4 | 20.9 | 0.00 | 0.00 | 0.00 | 20 | 1006.4 |
| 20260504001154 | 20 | 237 | 0.0 | 9.7 | 0.00 | 0.00 | 0.00 | 19 | 1006.6 |
| 20260504000133 | 20 | 248 | 9.7 | 17.7 | 0.00 | 0.00 | 0.00 | 19 | 1006.7 |
| 20260503235117 | 21 | 0 | 9.7 | 27.4 | 0.00 | 0.00 | 0.00 | 19 | 1006.7 |
| 20260503234105 | 21 | 242 | 9.7 | 27.4 | 0.00 | 0.00 | 0.00 | 18 | 1006.8 |
| 20260503233102 | 20 | 221 | 6.4 | 24.1 | 0.00 | 0.00 | 0.00 | 18 | 1007.0 |
| 20260503232105 | 21 | 260 | 6.4 | 24.1 | 0.00 | 0.00 | 0.00 | 18 | 1007.1 |
| 20260503231045 | 21 | 250 | 6.4 | 1.6 | 0.00 | 0.00 | 0.00 | 18 | 1007.3 |
| 20260503230020 | 21 | 244 | 4.8 | 19.3 | 0.00 | 0.00 | 0.00 | 18 | 1007.4 |
| 20260503225036 | 20 | 0 | 1.6 | 17.7 | 0.00 | 0.00 | 0.00 | 18 | 1007.6 |
| 20260503224031 | 20 | 257 | 1.6 | 20.9 | 0.00 | 0.00 | 0.00 | 20 | 1007.9 |
| 20260503223030 | 19 | 0 | 0.0 | 8.0 | 0.00 | 0.00 | 0.00 | 20 | 1008.0 |
| 20260503222044 | 19 | 0 | 0.0 | 11.3 | 0.00 | 0.00 | 0.00 | 19 | 1008.3 |
| 20260503221022 | 20 | 268 | 4.8 | 20.9 | 0.00 | 0.00 | 0.00 | 19 | 1008.4 |
| 20260503220000 | 20 | 0 | 1.6 | 4.8 | 0.00 | 0.00 | 0.00 | 19 | 1008.6 |
| 20260503214943 | 19 | 272 | 0.0 | 1.6 | 0.00 | 0.00 | 0.00 | 19 | 1008.8 |
| 20260503213930 | 19 | 0 | 0.0 | 0.0 | 0.00 | 0.00 | 0.00 | 19 | 1009.0 |
| 20260503212904 | 19 | 0 | 0.0 | 0.0 | 0.00 | 0.00 | 0.00 | 21 | 1009.2 |
| 20260503211911 | 18 | 0 | 0.0 | 0.0 | 0.00 | 0.00 | 0.00 | 21 | 1009.3 |
| 20260503210850 | 19 | 0 | 0.0 | 0.0 | 0.00 | 0.00 | 0.00 | 20 | 1009.6 |
| 20260503205914 | 20 | 0 | 4.8 | 19.3 | 0.00 | 0.00 | 0.00 | 20 | 1009.7 |
| 20260503204858 | 19 | 0 | 0.0 | 1.6 | 0.00 | 0.00 | 0.00 | 21 | 1010.0 |
| 20260503203825 | 19 | 272 | 0.0 | 0.0 | 0.00 | 0.00 | 0.00 | 21 | 1010.2 |
| 20260503202831 | 18 | 0 | 4.8 | 19.3 | 0.00 | 0.00 | 0.00 | 21 | 1010.4 |
| 20260503201838 | 18 | 229 | 0.0 | 9.7 | 0.00 | 0.00 | 0.00 | 22 | 1010.6 |
| 20260503200849 | 18 | 333 | 0.0 | 1.6 | 0.00 | 0.00 | 0.00 | 22 | 1010.7 |
| 20260503195910 | 18 | 274 | 0.0 | 0.0 | 0.00 | 0.00 | 0.00 | 21 | 1010.9 |
| 20260503192606 | 19 | 200 | 0.0 | 8.0 | 0.00 | 0.00 | 0.00 | 20 | 1011.3 |
| 20260503191605 | 20 | 191 | 1.6 | 0.0 | 0.00 | 0.00 | 0.00 | 20 | 1011.5 |
| 20260503190554 | 19 | 186 | 4.8 | 4.8 | 0.00 | 0.00 | 0.00 | 23 | 1011.7 |
| 20260503185524 | 18 | 205 | 4.8 | 17.7 | 0.00 | 0.00 | 0.00 | 23 | 1012.1 |
| 20260503184505 | 18 | 157 | 0.0 | 8.0 | 0.00 | 0.00 | 0.00 | 23 | 1012.3 |
| 20260503183519 | 18 | 124 | 0.0 | 6.4 | 0.00 | 0.00 | 0.00 | 24 | 1012.4 |
| 20260503182515 | 17 | 138 | 1.6 | 14.5 | 0.00 | 0.00 | 0.00 | 25 | 1012.8 |
| 20260503181505 | 19 | 153 | 1.6 | 17.7 | 0.00 | 0.00 | 0.00 | 24 | 1013.0 |
| 20260503180445 | 19 | 145 | 4.8 | 16.1 | 0.00 | 0.00 | 0.00 | 23 | 1013.2 |
| 20260503174237 | 17 | 192 | 1.6 | 22.5 | 0.00 | 0.00 | 0.00 | 26 | 1013.5 |
| 20260503173228 | 17 | 173 | 6.4 | 0.0 | 0.00 | 0.00 | 0.00 | 25 | 1013.8 |
| 20260503172207 | 17 | 179 | 4.8 | 25.7 | 0.00 | 0.00 | 0.00 | 25 | 1014.0 |
| 20260503171151 | 17 | 165 | 1.6 | 0.0 | 0.00 | 0.00 | 0.00 | 26 | 1014.0 |
| 20260503170137 | 17 | 156 | 6.4 | 20.9 | 0.00 | 0.00 | 0.00 | 28 | 1014.1 |
| 20260503150939 | 13 | 96 | 4.8 | 27.4 | 0.00 | 0.00 | 0.00 | 34 | 1015.2 |